Weather History for KBQP - April, 2013

Change the Weather History Date:

Wednesday, April 17, 2013

  Actual Average (KMLU) Record (KMLU)
Temperature  
Mean Temperature 80 °F 66 °F  
Max Temperature 88 °F 78 °F 90 °F (1981)
Min Temperature 72 °F 54 °F 39 °F (1951)
Degree Days  
Heating Degree Days 0 2  
Month to date heating degree days 63  
Since 1 July heating degree days 2207  
Cooling Degree Days 15 3  
Month to date cooling degree days 44  
Year to date cooling degree days 87  
Growing Degree Days 30 (Base 50)    
Moisture  
Dew Point 70 °F    
Average Humidity 74    
Maximum Humidity 91    
Minimum Humidity 49    
Precipitation  
Precipitation 0.00 in 0.14 in 1.26 in (1950)
Month to date precipitation 2.49  
Year to date precipitation 16.85  
Snow  
Snow 0.00 in - - ()
Month to date snowfall  
Since 1 July snowfall  
Snow Depth -    
Sea Level Pressure  
Sea Level Pressure 29.98 in    
Wind  
Wind Speed 2 mph (SSE)    
Max Wind Speed 15 mph    
Max Gust Speed 22 mph    
Visibility 8 miles    
Events      
T = Trace of Precipitation, MM = Missing Value Source: NWS Daily Summary

Daily Weather History Graph

Daily Weather History Graph

Search for Another Location

Airport or City:

Trip Planner

Search our weather history database for the weather conditions in past years. The results will help you decide how hot, cold, wet, or windy it might be!

Date:

Astronomy

Apr. 17, 2013 Rise Set
Actual Time 6:35 AM CDT 7:39 PM CDT
Civil Twilight 6:09 AM CDT 8:04 PM CDT
Nautical Twilight 5:39 AM CDT 8:34 PM CDT
Astronomical Twilight 5:08 AM CDT 9:06 PM CDT
Moon 11:55 AM CDT (4/17) 1:10 AM CDT (4/17)
Length of Visible Light 13h 54m
Length of Day
13h 04m
Waxing Crescent, 42% of the Moon is Illuminated
Apr 17
Waxing Crescent
Apr 18
First Quarter
Apr 25
Full
May 2
Last Quarter
May 9
New

Hourly Weather History & Observations

Time (CDT) Temp. Heat Index Dew Point Humidity Pressure Visibility Wind Dir Wind Speed Gust Speed Precip Events Conditions
12:15 AM 76.3 °F - 70.0 °F 81% 30.02 in 10.0 mi Calm Calm - N/A   Clear
12:35 AM 76.3 °F - 70.2 °F 81% 30.03 in 10.0 mi Calm Calm - N/A   Clear
12:55 AM 76.1 °F - 70.3 °F 82% 30.02 in 10.0 mi Calm Calm - N/A   Clear
1:15 AM 75.6 °F - 70.5 °F 84% 30.02 in 10.0 mi Calm Calm - N/A   Clear
1:35 AM 75.6 °F - 70.7 °F 85% 30.03 in 10.0 mi Calm Calm - N/A   Scattered Clouds
1:55 AM 75.4 °F - 70.7 °F 85% 30.02 in 10.0 mi Calm Calm - N/A   Mostly Cloudy
2:15 AM 75.2 °F - 70.7 °F 86% 30.02 in 10.0 mi Calm Calm - N/A   Mostly Cloudy
2:35 AM 74.5 °F - 70.7 °F 88% 30.01 in 7.0 mi Calm Calm - N/A   Scattered Clouds
2:55 AM 74.5 °F - 70.7 °F 88% 30.01 in 7.0 mi Calm Calm - N/A   Clear
3:15 AM 74.3 °F - 70.7 °F 88% 30.02 in 7.0 mi Calm Calm - N/A   Clear
3:35 AM 73.9 °F - 70.7 °F 90% 30.02 in 7.0 mi Calm Calm - N/A   Scattered Clouds
3:55 AM 73.6 °F - 70.5 °F 90% 30.01 in 7.0 mi Calm Calm - N/A   Clear
4:35 AM 73.8 °F - 70.5 °F 90% 30.02 in 7.0 mi Calm Calm - N/A   Mostly Cloudy
4:55 AM 73.6 °F - 70.5 °F 90% 30.03 in 7.0 mi Calm Calm - N/A   Mostly Cloudy
5:15 AM 73.8 °F - 70.7 °F 90% 30.03 in 7.0 mi Calm Calm - N/A   Overcast
5:35 AM 73.6 °F - 70.3 °F 90% 30.02 in 7.0 mi Calm Calm - N/A   Scattered Clouds
5:55 AM 73.4 °F - 70.3 °F 90% 30.02 in 5.0 mi Calm Calm - N/A   Scattered Clouds
6:15 AM 73.0 °F - 70.2 °F 91% 30.03 in 5.0 mi Calm Calm - N/A   Scattered Clouds
6:35 AM 72.7 °F - 70.0 °F 91% 30.04 in 5.0 mi Calm Calm - N/A   Scattered Clouds
6:55 AM 72.7 °F - 70.0 °F 91% 30.05 in 4.0 mi Calm Calm - N/A   Clear
7:15 AM 72.9 °F - 70.2 °F 91% 30.05 in 3.0 mi Calm Calm - N/A   Mist
7:35 AM 73.2 °F - 70.2 °F 90% 30.06 in 4.0 mi Calm Calm - N/A   Scattered Clouds
7:55 AM 73.4 °F - 70.3 °F 90% 30.07 in 4.0 mi Calm Calm - N/A   Clear
8:15 AM 73.9 °F - 70.5 °F 89% 30.07 in 5.0 mi Calm Calm - N/A   Scattered Clouds
8:35 AM 74.3 °F - 70.7 °F 88% 30.07 in 5.0 mi Calm Calm - N/A   Scattered Clouds
8:55 AM 74.8 °F - 70.7 °F 87% 30.07 in 7.0 mi Calm Calm - N/A   Scattered Clouds
9:15 AM 75.6 °F - 71.1 °F 86% 30.07 in 7.0 mi Calm Calm - N/A   Mostly Cloudy
9:35 AM 76.1 °F - 70.9 °F 84% 30.07 in 7.0 mi Calm Calm - N/A   Scattered Clouds
9:55 AM 76.5 °F - 70.7 °F 82% 30.07 in 7.0 mi Calm Calm - N/A   Scattered Clouds
10:15 AM 77.0 °F - 70.9 °F 81% 30.07 in 7.0 mi Calm Calm - N/A   Mostly Cloudy
10:35 AM 77.4 °F - 70.7 °F 80% 30.07 in 7.0 mi Calm Calm - N/A   Mostly Cloudy
10:55 AM 77.4 °F - 70.7 °F 80% 30.07 in 7.0 mi Calm Calm - N/A   Mostly Cloudy
11:15 AM 77.9 °F - 70.7 °F 78% 30.06 in 7.0 mi Calm Calm - N/A   Mostly Cloudy
11:35 AM 78.6 °F - 70.5 °F 76% 30.05 in 7.0 mi SE 6.9 mph - N/A   Mostly Cloudy
11:55 AM 80.1 °F 83.3 °F 70.3 °F 72% 30.04 in 7.0 mi SE 3.5 mph - N/A   Mostly Cloudy
12:15 PM 80.1 °F 83.4 °F 70.5 °F 73% 30.03 in 7.0 mi SE 6.9 mph - N/A   Mostly Cloudy
12:35 PM 80.6 °F 84.1 °F 70.3 °F 71% 30.02 in 7.0 mi Calm Calm - N/A   Overcast
12:55 PM 81.0 °F 84.6 °F 70.5 °F 70% 30.02 in 10.0 mi SSE 8.1 mph - N/A   Overcast
1:15 PM 81.3 °F 85.0 °F 70.3 °F 69% 30.01 in 10.0 mi Calm Calm - N/A   Overcast
1:35 PM 82.8 °F 87.2 °F 70.7 °F 67% 30.00 in 10.0 mi SE 4.6 mph - N/A   Overcast
1:55 PM 83.7 °F 88.6 °F 71.1 °F 66% 29.99 in 10.0 mi SE 3.5 mph - N/A   Mostly Cloudy
2:15 PM 85.5 °F 90.1 °F 70.2 °F 60% 29.98 in 10.0 mi SE 6.9 mph 18.4 mph N/A   Scattered Clouds
2:35 PM 86.2 °F 90.0 °F 68.9 °F 56% 29.97 in 10.0 mi South 12.7 mph 20.7 mph N/A   Scattered Clouds
2:55 PM 86.0 °F 90.1 °F 69.1 °F 57% 29.96 in 10.0 mi SSE 10.4 mph 16.1 mph N/A   Scattered Clouds
3:35 PM 88.2 °F 92.1 °F 68.5 °F 52% 29.93 in 10.0 mi South 15.0 mph 21.9 mph N/A   Scattered Clouds
3:55 PM 86.9 °F 90.6 °F 68.4 °F 54% 29.92 in 10.0 mi South 11.5 mph - N/A   Scattered Clouds
4:15 PM 87.4 °F 90.8 °F 68.0 °F 52% 29.91 in 10.0 mi SSE 12.7 mph 18.4 mph N/A   Scattered Clouds
4:35 PM 88.7 °F 91.9 °F 67.5 °F 49% 29.90 in 10.0 mi South 10.4 mph 16.1 mph N/A   Scattered Clouds
4:55 PM 88.5 °F 91.6 °F 67.1 °F 49% 29.88 in 10.0 mi SSE 12.7 mph 20.7 mph N/A   Scattered Clouds
5:15 PM 88.0 °F 90.7 °F 66.7 °F 49% 29.88 in 10.0 mi SSE 6.9 mph 19.6 mph N/A   Clear
5:35 PM 87.6 °F 90.4 °F 67.1 °F 50% 29.88 in 10.0 mi SSE 5.8 mph 19.6 mph N/A   Clear
5:55 PM 87.3 °F 89.8 °F 66.4 °F 50% 29.88 in 10.0 mi South 10.4 mph 20.7 mph N/A   Clear
6:15 PM 86.0 °F 88.8 °F 66.9 °F 53% 29.87 in 10.0 mi SSE 8.1 mph 17.3 mph N/A   Clear
6:35 PM 85.8 °F 88.5 °F 67.1 °F 53% 29.87 in 10.0 mi SSE 6.9 mph 17.3 mph N/A   Clear
6:55 PM 85.1 °F 87.9 °F 67.5 °F 55% 29.86 in 10.0 mi SSE 4.6 mph - N/A   Scattered Clouds
7:15 PM 83.8 °F 86.5 °F 67.3 °F 57% 29.86 in 10.0 mi Calm Calm - N/A   Clear
7:35 PM 82.9 °F 85.4 °F 66.9 °F 58% 29.86 in 10.0 mi SSE 4.6 mph - N/A   Clear
7:55 PM 82.4 °F 85.0 °F 67.1 °F 60% 29.86 in 10.0 mi Calm Calm - N/A   Clear
8:15 PM 81.5 °F 84.1 °F 67.5 °F 62% 29.86 in 10.0 mi SSE 3.5 mph - N/A   Clear
8:35 PM 81.5 °F 84.2 °F 67.8 °F 63% 29.86 in 10.0 mi Calm Calm - N/A   Scattered Clouds
8:55 PM 80.8 °F 83.5 °F 68.0 °F 65% 29.86 in 10.0 mi SSE 4.6 mph - N/A   Scattered Clouds
9:15 PM 80.8 °F 83.5 °F 68.0 °F 65% 29.86 in 10.0 mi Calm Calm - N/A   Scattered Clouds
9:55 PM 79.9 °F - 68.7 °F 69% 29.87 in 10.0 mi Calm Calm - N/A   Clear
10:15 PM 79.9 °F - 69.1 °F 69% 29.88 in 10.0 mi SE 9.2 mph 17.3 mph N/A   Scattered Clouds
10:35 PM 79.5 °F - 69.4 °F 71% 29.86 in 10.0 mi Calm Calm - N/A   Clear
10:55 PM 79.2 °F - 69.4 °F 72% 29.86 in 10.0 mi SSE 8.1 mph - N/A   Mostly Cloudy
11:15 PM 78.6 °F - 69.6 °F 74% 29.86 in 10.0 mi SE 5.8 mph - N/A   Scattered Clouds
11:35 PM 78.3 °F - 69.8 °F 75% 29.87 in 10.0 mi SSE 8.1 mph - N/A   Clear
11:55 PM 77.9 °F - 69.4 °F 75% 29.87 in 10.0 mi SSE 4.6 mph - N/A   Scattered Clouds